TimeMST,TemperatureF,Dew PointF,Humidity,Sea Level PressureIn,VisibilityMPH,Wind Direction,Wind SpeedMPH,Gust SpeedMPH,PrecipitationIn,Events,Conditions,WindDirDegrees,DateUTC
12:05 AM,-4.0,-7.6,85,30.01,10.0,SSW,5.8,-,N/A,,Clear,200,2013-01-15 07:05:00
12:25 AM,-2.2,-5.8,85,30.01,10.0,SW,4.6,-,N/A,,Clear,220,2013-01-15 07:25:00
12:45 AM,3.2,-0.4,85,30.02,10.0,SW,5.8,-,N/A,,Clear,230,2013-01-15 07:45:00
1:05 AM,3.2,-0.4,85,30.01,10.0,WSW,5.8,-,N/A,,Clear,240,2013-01-15 08:05:00
1:25 AM,1.4,-4.0,78,30.02,10.0,WSW,5.8,-,N/A,,Clear,240,2013-01-15 08:25:00
1:45 AM,3.2,-0.4,85,30.02,10.0,SW,4.6,-,N/A,,Clear,220,2013-01-15 08:45:00
2:05 AM,3.2,-0.4,85,30.02,10.0,WSW,6.9,-,N/A,,Clear,240,2013-01-15 09:05:00
2:25 AM,5.0,-0.4,78,30.03,10.0,WSW,4.6,-,N/A,,Clear,240,2013-01-15 09:25:00
2:45 AM,1.4,-4.0,78,30.02,10.0,SW,8.1,-,N/A,,Clear,230,2013-01-15 09:45:00
3:05 AM,1.4,-4.0,78,30.02,10.0,SSW,5.8,-,N/A,,Clear,210,2013-01-15 10:05:00
3:25 AM,-7.6,-13.0,77,30.02,10.0,SSW,6.9,-,N/A,,Clear,210,2013-01-15 10:25:00
4:05 AM,-5.8,-13.0,71,30.02,10.0,SSW,5.8,-,N/A,,Clear,210,2013-01-15 11:05:00
4:25 AM,1.4,-2.2,85,30.02,10.0,SSW,9.2,-,N/A,,Clear,210,2013-01-15 11:25:00
4:44 AM,-5.8,-13.0,71,30.01,10.0,SSW,9.2,-,N/A,,Clear,200,2013-01-15 11:44:00
5:05 AM,-0.4,-7.6,72,30.01,10.0,SSW,8.1,-,N/A,,Clear,200,2013-01-15 12:05:00
5:25 AM,-4.0,-9.4,78,30.02,10.0,South,6.9,-,N/A,,Clear,190,2013-01-15 12:25:00
5:45 AM,-4.0,-9.4,78,30.02,10.0,South,8.1,-,N/A,,Clear,190,2013-01-15 12:45:00
6:05 AM,-5.8,-9.4,84,30.02,10.0,South,8.1,-,N/A,,Clear,180,2013-01-15 13:05:00
6:24 AM,-4.0,-9.4,78,30.02,10.0,South,10.4,-,N/A,,Clear,190,2013-01-15 13:24:00
6:45 AM,-2.2,-9.4,71,30.02,10.0,South,8.1,-,N/A,,Scattered Clouds,190,2013-01-15 13:45:00
7:05 AM,-0.4,-7.6,72,30.02,10.0,South,11.5,-,N/A,,Clear,190,2013-01-15 14:05:00
7:25 AM,1.4,-7.6,66,30.02,10.0,South,9.2,-,N/A,,Clear,190,2013-01-15 14:25:00
7:45 AM,1.4,-5.8,72,30.04,10.0,SSW,10.4,-,N/A,,Clear,200,2013-01-15 14:45:00
8:05 AM,3.2,-4.0,72,30.04,10.0,SSW,11.5,-,N/A,,Scattered Clouds,200,2013-01-15 15:05:00
8:07 AM,5.0,-4.0,66,30.04,10.0,SSW,11.5,-,N/A,,Scattered Clouds,200,2013-01-15 15:07:00
8:48 AM,14.0,-2.2,49,30.06,50.0,SSW,11.5,-,N/A,,Scattered Clouds,210,2013-01-15 15:48:00
9:48 AM,19.4,3.2,49,30.06,50.0,SSW,8.1,-,N/A,,Mostly Cloudy,200,2013-01-15 16:48:00
10:52 AM,23.0,8.6,54,30.05,50.0,South,5.8,-,N/A,,Overcast,180,2013-01-15 17:52:00
11:48 AM,26.6,10.4,51,30.03,50.0,SSW,8.1,-,N/A,,Overcast,210,2013-01-15 18:48:00
12:49 PM,28.4,10.4,47,30.02,30.0,SW,5.8,-,N/A,,Overcast,230,2013-01-15 19:49:00
1:48 PM,30.2,10.4,44,30.03,30.0,West,5.8,-,N/A,,Overcast,270,2013-01-15 20:48:00
3:48 PM,30.2,14.0,51,30.04,30.0,SW,5.8,-,N/A,,Mostly Cloudy,230,2013-01-15 22:48:00
9:25 PM,32.0,19.4,60,30.07,10.0,WSW,8.1,-,N/A,,Scattered Clouds,240,2013-01-16 04:25:00
9:45 PM,30.2,21.2,69,30.08,10.0,West,5.8,-,N/A,,Mostly Cloudy,260,2013-01-16 04:45:00
10:04 PM,32.0,19.4,60,30.09,10.0,West,5.8,-,N/A,,Overcast,260,2013-01-16 05:04:00
10:25 PM,32.0,19.4,60,30.09,10.0,West,4.6,-,N/A,,Overcast,280,2013-01-16 05:25:00
10:45 PM,32.0,19.4,60,30.09,10.0,West,6.9,-,N/A,,Overcast,260,2013-01-16 05:45:00
11:05 PM,33.8,21.2,60,30.09,10.0,West,6.9,-,N/A,,Overcast,260,2013-01-16 06:05:00
11:25 PM,32.0,23.0,69,30.09,10.0,West,9.2,-,N/A,,Overcast,260,2013-01-16 06:25:00
11:45 PM,32.0,23.0,69,30.09,10.0,West,9.2,-,N/A,,Overcast,260,2013-01-16 06:45:00